Sturgeon Bay, WI

8:42 AM CDT on May 26, 2017 (GMT -0500)
Door County Cherryland

Weather History for KSUE - October, 2010

Change the Weather History Date:

Thursday, October 7, 2010

  Actual Average Record
Temperature  
Mean Temperature 58 °F -  
Max Temperature 66 °F 58 °F 82 °F (2007)
Min Temperature 51 °F 41 °F 26 °F (2001)
Degree Days  
Heating Degree Days 6    
Growing Degree Days 8 (Base 50)    
Moisture  
Dew Point 40 °F    
Average Humidity 51    
Maximum Humidity 72    
Minimum Humidity 40    
Precipitation  
Precipitation 0.00 in - - ()
Sea Level Pressure  
Sea Level Pressure 30.04 in    
Wind  
Wind Speed 8 mph (WNW)    
Max Wind Speed 15 mph    
Max Gust Speed 21 mph    
Visibility 10 miles    
Events      
Averages and records for this station are not official NWS values.
T = Trace of Precipitation, MM = Missing Value Source: NWS Daily Summary

Daily Weather History Graph

Daily Weather History Graph

Search for Another Location

Airport or City:

Trip Planner

Search our weather history database for the weather conditions in past years. The results will help you decide how hot, cold, wet, or windy it might be!

Date:

Astronomy

Oct. 07, 2010 Rise Set
Actual Time 6:55 AM CDT 6:19 PM CDT
Civil Twilight 6:25 AM CDT 6:48 PM CDT
Nautical Twilight 5:51 AM CDT 7:22 PM CDT
Astronomical Twilight 5:17 AM CDT 7:56 PM CDT
Moon 6:48 AM CDT (10/7) 5:51 PM CDT (10/7)
Length of Visible Light 12h 22m
Length of Day
11h 24m
Waning Crescent, 0% of the Moon is Illuminated
Oct 7
Waning Crescent
Oct 7
New
Oct 14
First Quarter
Oct 22
Full
Oct 30
Last Quarter

Hourly Weather History & Observations

Time (CDT) Temp. Dew Point Humidity Pressure Visibility Wind Dir Wind Speed Gust Speed Precip Events Conditions
12:15 AM 53.6 °F 44.6 °F 72% 29.98 in 10.0 mi WNW 3.5 mph - N/A   Clear
12:35 AM 51.8 °F 42.8 °F 71% 29.99 in 10.0 mi West 4.6 mph - N/A   Clear
12:55 AM 51.8 °F 42.8 °F 71% 29.99 in 10.0 mi West 5.8 mph - N/A   Clear
1:15 AM 51.8 °F 41.0 °F 67% 29.99 in 10.0 mi WNW 5.8 mph - N/A   Clear
1:35 AM 53.6 °F 39.2 °F 58% 29.99 in 10.0 mi WNW 6.9 mph - N/A   Clear
1:55 AM 51.8 °F 39.2 °F 62% 29.99 in 10.0 mi West 8.1 mph - N/A   Clear
2:15 AM 53.6 °F 39.2 °F 58% 30.00 in 10.0 mi WNW 9.2 mph 16.1 mph N/A   Clear
2:35 AM 53.6 °F 37.4 °F 54% 30.00 in 10.0 mi NW 11.5 mph 16.1 mph N/A   Clear
2:55 AM 55.4 °F 37.4 °F 51% 29.99 in 10.0 mi NW 15.0 mph 20.7 mph N/A   Clear
3:15 AM 55.4 °F 37.4 °F 51% 29.99 in 10.0 mi NW 11.5 mph 18.4 mph N/A   Clear
3:35 AM 53.6 °F 35.6 °F 51% 29.99 in 10.0 mi NW 10.4 mph 17.3 mph N/A   Clear
3:55 AM 53.6 °F 37.4 °F 54% 29.99 in 10.0 mi NW 9.2 mph - N/A   Clear
4:15 AM 53.6 °F 37.4 °F 54% 29.99 in 10.0 mi NW 5.8 mph - N/A   Clear
4:35 AM 53.6 °F 35.6 °F 51% 30.00 in 10.0 mi WNW 9.2 mph - N/A   Clear
4:55 AM 53.6 °F 35.6 °F 51% 30.00 in 10.0 mi WNW 9.2 mph - N/A   Clear
5:15 AM 53.6 °F 35.6 °F 51% 30.01 in 10.0 mi NW 5.8 mph - N/A   Clear
5:35 AM 53.6 °F 35.6 °F 51% 30.00 in 10.0 mi NW 6.9 mph - N/A   Clear
5:55 AM 53.6 °F 35.6 °F 51% 30.00 in 10.0 mi NW 10.4 mph - N/A   Clear
6:15 AM 53.6 °F 37.4 °F 54% 30.00 in 10.0 mi NW 12.7 mph 18.4 mph N/A   Clear
6:35 AM 53.6 °F 35.6 °F 51% 30.01 in 10.0 mi WNW 10.4 mph - N/A   Clear
6:55 AM 53.6 °F 37.4 °F 54% 30.01 in 10.0 mi WNW 6.9 mph - N/A   Clear
7:15 AM 53.6 °F 37.4 °F 54% 30.03 in 10.0 mi WNW 13.8 mph 18.4 mph N/A   Clear
7:35 AM 53.6 °F 37.4 °F 54% 30.03 in 10.0 mi NW 12.7 mph 18.4 mph N/A   Clear
7:55 AM 53.6 °F 37.4 °F 54% 30.04 in 10.0 mi WNW 10.4 mph - N/A   Clear
8:15 AM 53.6 °F 39.2 °F 58% 30.05 in 10.0 mi NW 10.4 mph - N/A   Clear
8:35 AM 55.4 °F 37.4 °F 51% 30.05 in 10.0 mi WNW 10.4 mph - N/A   Clear
8:55 AM 55.4 °F 39.2 °F 54% 30.06 in 10.0 mi NW 8.1 mph 16.1 mph N/A   Clear
9:15 AM 55.4 °F 39.2 °F 54% 30.07 in 10.0 mi NW 9.2 mph - N/A   Clear
9:35 AM 57.2 °F 39.2 °F 51% 30.08 in 10.0 mi NNW 8.1 mph - N/A   Clear
9:55 AM 57.2 °F 41.0 °F 55% 30.08 in 10.0 mi NNW 8.1 mph - N/A   Clear
10:15 AM 57.2 °F 41.0 °F 55% 30.09 in 10.0 mi NW 9.2 mph - N/A   Clear
10:35 AM 57.2 °F 42.8 °F 59% 30.09 in 10.0 mi NNW 8.1 mph - N/A   Clear
10:55 AM 59.0 °F 41.0 °F 51% 30.09 in 10.0 mi NNW 8.1 mph - N/A   Clear
11:15 AM 60.8 °F 42.8 °F 52% 30.08 in 10.0 mi NNW 10.4 mph - N/A   Clear
11:35 AM 60.8 °F 41.0 °F 48% 30.08 in 10.0 mi NNW 9.2 mph - N/A   Clear
11:55 AM 60.8 °F 42.8 °F 52% 30.09 in 10.0 mi NNW 8.1 mph - N/A   Clear
12:15 PM 62.6 °F 41.0 °F 45% 30.10 in 10.0 mi NW 6.9 mph - N/A   Clear
12:35 PM 62.6 °F 41.0 °F 45% 30.11 in 10.0 mi WNW 8.1 mph - N/A   Clear
12:55 PM 62.6 °F 42.8 °F 48% 30.10 in 10.0 mi WNW 8.1 mph - N/A   Clear
1:15 PM 64.4 °F 42.8 °F 45% 30.10 in 10.0 mi WNW 6.9 mph - N/A   Clear
1:35 PM 64.4 °F 41.0 °F 42% 30.09 in 10.0 mi WNW 5.8 mph - N/A   Clear
1:55 PM 64.4 °F 42.8 °F 45% 30.08 in 10.0 mi WNW 6.9 mph - N/A   Clear
2:15 PM 66.2 °F 42.8 °F 43% 30.08 in 10.0 mi WNW 8.1 mph - N/A   Clear
2:35 PM 66.2 °F 41.0 °F 40% 30.07 in 10.0 mi WSW 6.9 mph - N/A   Clear
2:55 PM 66.2 °F 41.0 °F 40% 30.07 in 10.0 mi WNW 8.1 mph - N/A   Clear
3:15 PM 66.2 °F 41.0 °F 40% 30.07 in 10.0 mi WSW 9.2 mph - N/A   Clear
3:35 PM 66.2 °F 42.8 °F 43% 30.06 in 10.0 mi West 6.9 mph - N/A   Clear
3:55 PM 66.2 °F 41.0 °F 40% 30.06 in 10.0 mi West 8.1 mph - N/A   Clear
4:15 PM 66.2 °F 41.0 °F 40% 30.05 in 10.0 mi West 9.2 mph - N/A   Clear
4:35 PM 66.2 °F 42.8 °F 43% 30.05 in 10.0 mi SW 8.1 mph - N/A   Clear
4:55 PM 66.2 °F 42.8 °F 43% 30.05 in 10.0 mi SW 10.4 mph - N/A   Clear
5:15 PM 66.2 °F 41.0 °F 40% 30.05 in 10.0 mi SW 5.8 mph - N/A   Clear
5:35 PM 66.2 °F 41.0 °F 40% 30.04 in 10.0 mi SW 6.9 mph - N/A   Clear
5:55 PM 64.4 °F 42.8 °F 45% 30.04 in 10.0 mi SSW 5.8 mph - N/A   Clear
6:15 PM 62.6 °F 42.8 °F 48% 30.04 in 10.0 mi SSW 5.8 mph - N/A   Clear
6:35 PM 60.8 °F 42.8 °F 52% 30.04 in 10.0 mi SSW 6.9 mph - N/A   Clear
6:55 PM 59.0 °F 42.8 °F 55% 30.03 in 10.0 mi South 5.8 mph - N/A   Clear
7:15 PM 55.4 °F 44.6 °F 67% 30.03 in 10.0 mi SSW 4.6 mph - N/A   Clear
7:35 PM 55.4 °F 44.6 °F 67% 30.03 in 10.0 mi South 5.8 mph - N/A   Clear
7:55 PM 55.4 °F 44.6 °F 67% 30.03 in 10.0 mi South 5.8 mph - N/A   Clear
8:15 PM 55.4 °F 44.6 °F 67% 30.02 in 10.0 mi South 4.6 mph - N/A   Clear
8:35 PM 55.4 °F 44.6 °F 67% 30.02 in 10.0 mi SSW 6.9 mph - N/A   Clear
8:55 PM 55.4 °F 44.6 °F 67% 30.01 in 10.0 mi SSW 5.8 mph - N/A   Clear
9:15 PM 55.4 °F 42.8 °F 63% 30.01 in 10.0 mi SW 4.6 mph - N/A   Clear
9:35 PM 57.2 °F 42.8 °F 59% 30.01 in 10.0 mi SW 5.8 mph - N/A   Clear
9:55 PM 57.2 °F 42.8 °F 59% 30.01 in 10.0 mi SW 4.6 mph - N/A   Clear
10:15 PM 57.2 °F 42.8 °F 59% 30.01 in 10.0 mi WSW 4.6 mph - N/A   Clear
10:35 PM 57.2 °F 44.6 °F 63% 30.01 in 10.0 mi WSW 4.6 mph - N/A   Clear
10:55 PM 57.2 °F 44.6 °F 63% 30.01 in 10.0 mi West 4.6 mph - N/A   Clear
11:15 PM 57.2 °F 44.6 °F 63% 30.01 in 10.0 mi WSW 6.9 mph - N/A   Clear
11:35 PM 57.2 °F 44.6 °F 63% 30.01 in 10.0 mi WSW 6.9 mph - N/A   Clear
11:55 PM 57.2 °F 44.6 °F 63% 30.01 in 10.0 mi WSW 8.1 mph - N/A   Clear